• In Denmark
  • List of Countries
  • For 7 days
  • Water Temperature
  • Satellite Maps
  • Weather Map
  • Weather Widgets
  • user-avatar
    Login

    Hourly Weather Townsville

    Today, 21 July, Friday

    Time Temperature Precipitation Wind Pressure Humidity
    00:00 +16°C° 0 mm 2 mps 756 mmHg 85%
    01:00 +16°C° 0 mm 2 mps 756 mmHg 85%
    02:00 +16°C° 0 mm 2 mps 756 mmHg 85%
    03:00 +16°C° 0 mm 3 mps 756 mmHg 86%
    04:00 +14°C° 0 mm 3 mps 756 mmHg 86%
    05:00 +14°C° 0 mm 3 mps 756 mmHg 85%
    06:00 +14°C° 0 mm 3 mps 756 mmHg 84%
    07:00 +14°C° 0 mm 3 mps 756 mmHg 83%
    08:00 +17°C° 0 mm 3 mps 756 mmHg 71%
    09:00 +20°C° 0 mm 3 mps 757 mmHg 59%
    10:00 +24°C° 0 mm 3 mps 757 mmHg 47%
    11:00 +25°C° 0 mm 3 mps 757 mmHg 42%
    12:00 +27°C° 0 mm 3 mps 756 mmHg 38%
    13:00 +28°C° 0 mm 3 mps 756 mmHg 33%
    14:00 +27°C° 0 mm 4 mps 755 mmHg 36%
    15:00 +27°C° 0 mm 4 mps 755 mmHg 39%
    16:00 +27°C° 0 mm 4 mps 755 mmHg 42%
    17:00 +23°C° 0 mm 4 mps 755 mmHg 54%
    18:00 +21°C° 0 mm 3 mps 756 mmHg 66%
    19:00 +19°C° 0 mm 3 mps 756 mmHg 78%
    20:00 +19°C° 0 mm 3 mps 756 mmHg 80%
    21:00 +18°C° 0 mm 3 mps 757 mmHg 81%
    22:00 +18°C° 0 mm 3 mps 757 mmHg 83%
    23:00 +18°C° 0 mm 3 mps 757 mmHg 86%

    Tomorrow, 22 July, Saturday

    Time Temperature Precipitation Wind Pressure Humidity
    00:00 +17°C° 0 mm 3 mps 757 mmHg 89%
    01:00 +17°C° 0 mm 3 mps 757 mmHg 92%
    02:00 +17°C° 0 mm 4 mps 757 mmHg 91%
    03:00 +15°C° 0 mm 4 mps 757 mmHg 91%
    04:00 +15°C° 0 mm 4 mps 756 mmHg 91%
    05:00 +15°C° 0 mm 4 mps 757 mmHg 88%
    06:00 +14°C° 0 mm 4 mps 757 mmHg 86%
    07:00 +14°C° 0 mm 4 mps 757 mmHg 84%
    08:00 +18°C° 0 mm 4 mps 758 mmHg 74%
    09:00 +20°C° 0 mm 4 mps 758 mmHg 64%
    10:00 +23°C° 0 mm 4 mps 758 mmHg 55%
    11:00 +25°C° 0 mm 4 mps 758 mmHg 51%
    12:00 +26°C° 0 mm 4 mps 757 mmHg 47%
    13:00 +28°C° 0 mm 4 mps 757 mmHg 43%
    14:00 +27°C° 0 mm 5 mps 756 mmHg 45%
    15:00 +27°C° 0 mm 5 mps 756 mmHg 48%
    16:00 +26°C° 0 mm 5 mps 755 mmHg 51%
    17:00 +23°C° 0 mm 5 mps 756 mmHg 59%
    18:00 +21°C° 0 mm 4 mps 756 mmHg 67%
    19:00 +19°C° 0 mm 4 mps 757 mmHg 75%
    20:00 +19°C° 0 mm 4 mps 757 mmHg 77%
    21:00 +19°C° 0 mm 4 mps 757 mmHg 80%
    22:00 +18°C° 0 mm 4 mps 758 mmHg 83%
    23:00 +18°C° 0 mm 4 mps 758 mmHg 86%

    Day after tomorrow, 23 July, Sunday

    Time Temperature Precipitation Wind Pressure Humidity
    00:00 +18°C° 0 mm 4 mps 757 mmHg 89%
    01:00 +17°C° 0 mm 4 mps 757 mmHg 93%
    02:00 +17°C° 0 mm 4 mps 757 mmHg 93%
    03:00 +17°C° 0 mm 4 mps 757 mmHg 94%
    04:00 +17°C° 0 mm 3 mps 757 mmHg 95%
    05:00 +17°C° 0 mm 3 mps 757 mmHg 95%
    06:00 +17°C° 0 mm 3 mps 757 mmHg 96%
    07:00 +17°C° 0 mm 3 mps 758 mmHg 96%
    08:00 +20°C° 0 mm 4 mps 758 mmHg 86%
    09:00 +22°C° 0 mm 4 mps 758 mmHg 75%
    10:00 +25°C° 0 mm 4 mps 758 mmHg 64%
    11:00 +26°C° 0 mm 4 mps 758 mmHg 60%
    12:00 +27°C° 0 mm 4 mps 757 mmHg 56%
    13:00 +28°C° 0 mm 4 mps 756 mmHg 52%
    14:00 +28°C° 0 mm 4 mps 756 mmHg 54%
    15:00 +27°C° 0 mm 4 mps 755 mmHg 57%
    16:00 +27°C° 0 mm 5 mps 755 mmHg 59%
    17:00 +25°C° 0 mm 4 mps 755 mmHg 68%
    18:00 +22°C° 0 mm 4 mps 756 mmHg 77%
    19:00 +20°C° 0 mm 4 mps 756 mmHg 86%
    20:00 +20°C° 0 mm 4 mps 757 mmHg 88%
    21:00 +20°C° 0 mm 4 mps 757 mmHg 90%
    22:00 +19°C° 0 mm 4 mps 758 mmHg 92%
    23:00 +19°C° 0 mm 4 mps 757 mmHg 93%

    24 July, Monday

    Time Temperature Precipitation Wind Pressure Humidity
    00:00 +19°C° 0 mm 4 mps 757 mmHg 94%
    01:00 +19°C° 0 mm 4 mps 757 mmHg 94%
    02:00 +19°C° 0 mm 4 mps 757 mmHg 95%
    03:00 +18°C° 0 mm 4 mps 757 mmHg 95%
    04:00 +18°C° 0 mm 4 mps 757 mmHg 96%
    05:00 +18°C° 0 mm 4 mps 757 mmHg 96%
    06:00 +18°C° 0 mm 4 mps 757 mmHg 97%
    07:00 +17°C° 0 mm 4 mps 758 mmHg 97%
    08:00 +20°C° 0 mm 4 mps 758 mmHg 86%
    09:00 +22°C° 0 mm 4 mps 759 mmHg 75%
    10:00 +25°C° 0 mm 5 mps 759 mmHg 65%
    11:00 +26°C° 0 mm 5 mps 758 mmHg 61%
    12:00 +27°C° 0 mm 5 mps 758 mmHg 56%
    13:00 +28°C° 0 mm 5 mps 757 mmHg 52%
    14:00 +27°C° 0 mm 5 mps 757 mmHg 54%
    15:00 +27°C° 0 mm 5 mps 756 mmHg 56%
    16:00 +27°C° 0 mm 5 mps 756 mmHg 58%
    17:00 +25°C° 0 mm 5 mps 756 mmHg 66%
    18:00 +22°C° 0 mm 5 mps 757 mmHg 75%
    19:00 +20°C° 0 mm 5 mps 757 mmHg 83%
    20:00 +20°C° 0 mm 5 mps 757 mmHg 86%
    21:00 +19°C° 0 mm 5 mps 758 mmHg 89%
    22:00 +19°C° 0 mm 4 mps 758 mmHg 91%
    23:00 +19°C° 0 mm 4 mps 758 mmHg 93%

    25 July, Tuesday

    Time Temperature Precipitation Wind Pressure Humidity
    00:00 +18°C° 0 mm 4 mps 758 mmHg 94%
    01:00 +18°C° 0 mm 4 mps 758 mmHg 96%
    02:00 +18°C° 0.1 mm 4 mps 758 mmHg 96%
    03:00 +18°C° 0.1 mm 4 mps 757 mmHg 96%
    04:00 +18°C° 0.1 mm 4 mps 757 mmHg 96%
    05:00 +18°C° 0.1 mm 4 mps 758 mmHg 96%
    06:00 +18°C° 0.1 mm 4 mps 758 mmHg 97%
    07:00 +17°C° 0.1 mm 4 mps 759 mmHg 97%
    08:00 +20°C° 0 mm 5 mps 759 mmHg 85%
    09:00 +22°C° 0 mm 5 mps 759 mmHg 73%
    10:00 +25°C° 0 mm 5 mps 759 mmHg 61%
    11:00 +26°C° 0 mm 5 mps 759 mmHg 56%
    12:00 +27°C° 0 mm 5 mps 758 mmHg 51%
    13:00 +28°C° 0 mm 5 mps 757 mmHg 46%
    14:00 +28°C° 0 mm 5 mps 757 mmHg 48%
    15:00 +27°C° 0 mm 6 mps 756 mmHg 49%
    16:00 +27°C° 0 mm 6 mps 756 mmHg 51%
    17:00 +24°C° 0 mm 6 mps 757 mmHg 59%
    18:00 +22°C° 0 mm 6 mps 757 mmHg 67%
    19:00 +20°C° 0 mm 5 mps 757 mmHg 75%
    20:00 +20°C° 0 mm 5 mps 758 mmHg 78%
    21:00 +19°C° 0 mm 5 mps 758 mmHg 80%
    22:00 +19°C° 0 mm 5 mps 759 mmHg 83%
    23:00 +17°C° 0 mm 5 mps 758 mmHg 86%

    26 July, Wednesday

    Time Temperature Precipitation Wind Pressure Humidity
    00:00 +17°C° 0 mm 5 mps 758 mmHg 89%
    01:00 +17°C° 0 mm 4 mps 758 mmHg 92%
    02:00 +17°C° 0 mm 4 mps 758 mmHg 93%
    03:00 +17°C° 0 mm 4 mps 757 mmHg 93%
    04:00 +15°C° 0 mm 4 mps 757 mmHg 94%
    05:00 +15°C° 0 mm 4 mps 758 mmHg 94%
    06:00 +15°C° 0 mm 4 mps 758 mmHg 94%
    07:00 +15°C° 0 mm 4 mps 758 mmHg 94%
    08:00 +17°C° 0 mm 5 mps 759 mmHg 83%
    09:00 +21°C° 0 mm 5 mps 759 mmHg 71%
    10:00 +25°C° 0 mm 5 mps 759 mmHg 60%
    11:00 +26°C° 0 mm 5 mps 758 mmHg 55%
    12:00 +27°C° 0 mm 5 mps 758 mmHg 50%
    13:00 +28°C° 0 mm 5 mps 757 mmHg 45%
    14:00 +28°C° 0 mm 5 mps 757 mmHg 45%
    15:00 +28°C° 0 mm 5 mps 756 mmHg 44%
    16:00 +28°C° 0 mm 5 mps 756 mmHg 44%
    17:00 +26°C° 0 mm 5 mps 757 mmHg 54%
    18:00 +22°C° 0 mm 5 mps 757 mmHg 65%
    19:00 +20°C° 0 mm 5 mps 758 mmHg 76%
    20:00 +20°C° 0 mm 5 mps 758 mmHg 80%
    21:00 +19°C° 0 mm 5 mps 758 mmHg 84%
    22:00 +19°C° 0 mm 5 mps 759 mmHg 88%
    23:00 +17°C° 0 mm 5 mps 758 mmHg 88%
    Show more